Plentywood (PWD)
Plentywood, MT
Field Elevation: 2251
Lat: 48°47.32N  Long: 104°31.39W
CTAF/Unicom Freq: 122.8000
   
     For Weather-by-Phone, call 406-765-2149
Weather Advisories
12/19/2014 23:21 Z
Altimeter 29.89" Hg
Wind 090° @ 0 KT
Gusts --
Visibility 9 SM
Temperature -3° C (27° F)
Dewpoint -4° C (25° F)
Relative Humidity 92%
Density Altitude --
Condensation Altitude 2,800 feet
  Wind and Runways
Indicated Runway = 8
History
 
 
More Info
All DigiWx sites map
NOAA Forecast
 
Airport IQ 5010
(S59) Libby
(6S5) Ravalli County
 
about DigiWx
 
FAA Disclaimer: The data displayed is for advisory purposes only and is not to be used for flight planning or operations. For official data, please call 406-765-2149 to hear the current automated AWOS voice message.
  METAR PWD 192321Z AUTO 09000KT 9SM M03/M04 A2989